Data No,UTC Date,UTC Time,Latitude,Longitude,Course(deg),Temp(degC),Sal(psu),Fluor Int,Blank
100,2004/12/10,19:55:00, 22-20.463N,119-54.719E,230.8,24.118,34.5112,194,160
101,2004/12/10,19:56:00, 22-20.301N,119-54.560E,222.6,24.129,34.5122,196,160
102,2004/12/10,19:57:00, 22-20.140N,119-54.396E,221,24.134,34.5139,199,160
103,2004/12/10,19:58:00, 22-19.979N,119-54.230E,227.5,24.136,34.5144,196,160
104,2004/12/10,19:59:00, 22-19.813N,119-54.071E,222.4,24.135,34.5173,195,160
105,2004/12/10,20:00:00, 22-19.643N,119-53.914E,227.2,24.136,34.5183,194,160
106,2004/12/10,20:01:00, 22-19.496N,119-53.738E,221.8,24.133,34.5182,197,160
107,2004/12/10,20:02:00, 22-19.341N,119-53.565E,224.4,24.135,34.5185,192,160
108,2004/12/10,20:03:00, 22-19.188N,119-53.390E,223.9,24.132,34.5218,190,160
109,2004/12/10,20:04:00, 22-19.033N,119-53.216E,227.9,24.129,34.5241,188,160
110,2004/12/10,20:05:00, 22-18.881N,119-53.039E,227.8,24.126,34.5252,190,160
111,2004/12/10,20:06:00, 22-18.729N,119-52.862E,228.8,24.127,34.5226,189,160
112,2004/12/10,20:07:00, 22-18.571N,119-52.690E,219.5,24.128,34.5201,191,160
113,2004/12/10,20:08:00, 22-18.412N,119-52.519E,223.6,24.124,34.519,189,160
114,2004/12/10,20:09:00, 22-18.261N,119-52.342E,230.1,24.122,34.5189,191,160
115,2004/12/10,20:10:00, 22-18.108N,119-52.167E,226.4,24.118,34.5185,192,160
116,2004/12/10,20:11:00, 22-17.954N,119-51.991E,223.3,24.11,34.5168,190,160
117,2004/12/10,20:12:00, 22-17.794N,119-51.820E,221.1,24.099,34.5161,194,160
118,2004/12/10,20:13:00, 22-17.634N,119-51.650E,225.3,24.084,34.5146,191,160
119,2004/12/10,20:14:00, 22-17.476N,119-51.480E,222.8,24.077,34.5117,191,160
120,2004/12/10,20:15:00, 22-17.322N,119-51.310E,226.9,24.065,34.5083,190,160
121,2004/12/10,20:16:00, 22-17.165N,119-51.143E,225.3,24.121,34.5062,190,160
122,2004/12/10,20:17:00, 22-17.007N,119-50.976E,230.4,24.18,34.5084,188,160
123,2004/12/10,20:18:00, 22-16.852N,119-50.806E,226.3,24.218,34.5339,192,160
124,2004/12/10,20:19:00, 22-16.693N,119-50.639E,224.7,24.242,34.5512,195,160
125,2004/12/10,20:20:00, 22-16.536N,119-50.468E,224.8,24.246,34.5639,190,160
126,2004/12/10,20:21:00, 22-16.377N,119-50.298E,229.4,24.239,34.5728,193,160
127,2004/12/10,20:22:00, 22-16.218N,119-50.127E,227.2,24.229,34.5745,195,160
128,2004/12/10,20:23:00, 22-16.056N,119-49.959E,224.8,24.22,34.5728,189,160
129,2004/12/10,20:24:00, 22-15.897N,119-49.787E,232.5,24.212,34.5717,192,160
130,2004/12/10,20:25:00, 22-15.741N,119-49.613E,222.9,24.193,34.5715,197,160
131,2004/12/10,20:26:00, 22-15.583N,119-49.444E,226,24.144,34.5693,191,160
132,2004/12/10,20:27:00, 22-15.424N,119-49.277E,226.6,24.091,34.5613,168,160
133,2004/12/10,20:28:00, 22-15.269N,119-49.107E,228,24.06,34.5433,180,160
134,2004/12/10,20:29:00, 22-15.114N,119-48.937E,227.4,24.057,34.513,196,160
135,2004/12/10,20:30:00, 22-14.957N,119-48.768E,233.5,24.071,34.4916,197,160
136,2004/12/10,20:31:00, 22-14.802N,119-48.598E,222.9,24.096,34.4843,198,160
137,2004/12/10,20:32:00, 22-14.647N,119-48.429E,226,24.144,34.4829,207,160
138,2004/12/10,20:33:00, 22-14.497N,119-48.256E,221.2,24.208,34.4888,204,160
139,2004/12/10,20:34:00, 22-14.343N,119-48.088E,226,24.241,34.5005,197,160
140,2004/12/10,20:35:00, 22-14.185N,119-47.920E,224.3,24.255,34.5105,203,160
141,2004/12/10,20:36:00, 22-14.032N,119-47.750E,227.4,24.267,34.514,205,160
142,2004/12/10,20:37:00, 22-13.883N,119-47.577E,227.5,24.265,34.5136,201,160
143,2004/12/10,20:38:00, 22-13.733N,119-47.406E,221.3,24.239,34.5136,187,160
144,2004/12/10,20:39:00, 22-13.582N,119-47.234E,234.1,24.227,34.5034,202,160
145,2004/12/10,20:40:00, 22-13.432N,119-47.064E,221.1,24.218,34.4914,196,160
146,2004/12/10,20:41:00, 22-13.281N,119-46.892E,222.4,24.2,34.4837,192,160
147,2004/12/10,20:42:00, 22-13.129N,119-46.721E,226.7,24.198,34.477,190,160
148,2004/12/10,20:43:00, 22-12.976N,119-46.552E,225.9,24.196,34.4679,194,160
149,2004/12/10,20:44:00, 22-12.820N,119-46.384E,223.1,24.222,34.4615,186,160
150,2004/12/10,20:45:00, 22-12.670N,119-46.214E,223.6,24.271,34.4578,193,160
151,2004/12/10,20:46:00, 22-12.519N,119-46.043E,226.4,24.305,34.4608,189,160
152,2004/12/10,20:47:00, 22-12.370N,119-45.869E,220.2,24.328,34.4644,189,160
153,2004/12/10,20:48:00, 22-12.216N,119-45.700E,224.5,24.323,34.4668,190,160
154,2004/12/10,20:49:00, 22-12.066N,119-45.527E,222.9,24.367,34.468,182,160
155,2004/12/10,20:50:00, 22-11.918N,119-45.352E,221.4,24.424,34.4687,184,160
156,2004/12/10,20:51:00, 22-11.766N,119-45.181E,228.3,24.47,34.4759,188,160
157,2004/12/10,20:52:00, 22-11.618N,119-45.005E,226.5,24.508,34.4842,192,160
158,2004/12/10,20:53:00, 22-11.466N,119-44.833E,225.7,24.554,34.4904,188,160
159,2004/12/10,20:54:00, 22-11.313N,119-44.662E,228.6,24.574,34.5,190,160
160,2004/12/10,20:55:00, 22-11.168N,119-44.486E,225.3,24.604,34.5061,193,160
161,2004/12/10,20:56:00, 22-11.018N,119-44.315E,225.5,24.655,34.5097,193,160
162,2004/12/10,20:57:00, 22-10.868N,119-44.144E,223.9,24.716,34.5167,194,160
163,2004/12/10,20:58:00, 22-10.722N,119-43.970E,225.1,24.756,34.5278,188,160
164,2004/12/10,20:59:00, 22-10.577N,119-43.795E,226.2,24.786,34.5422,195,160
165,2004/12/10,21:00:00, 22-10.432N,119-43.620E,223.3,24.803,34.5506,192,160
166,2004/12/10,21:01:00, 22-10.283N,119-43.449E,229.7,24.815,34.5568,187,160
167,2004/12/10,21:02:00, 22-10.134N,119-43.278E,229.2,24.823,34.5617,190,160
168,2004/12/10,21:03:00, 22-09.991N,119-43.101E,228.9,24.83,34.5653,191,160
169,2004/12/10,21:04:00, 22-09.845N,119-42.924E,227.4,24.834,34.5681,188,160
170,2004/12/10,21:05:00, 22-09.700N,119-42.747E,231,24.834,34.569,191,160
171,2004/12/10,21:06:00, 22-09.550N,119-42.572E,228.5,24.828,34.5695,190,160
172,2004/12/10,21:07:00, 22-09.396N,119-42.402E,224.3,24.816,34.5685,185,160
173,2004/12/10,21:08:00, 22-09.244N,119-42.229E,231.6,24.807,34.564,189,160
174,2004/12/10,21:09:00, 22-09.091N,119-42.061E,234.5,24.8,34.5589,186,160
175,2004/12/10,21:10:00, 22-08.940N,119-41.888E,232.3,24.791,34.5596,189,160
176,2004/12/10,21:11:00, 22-08.789N,119-41.717E,219.3,24.784,34.561,185,160
177,2004/12/10,21:12:00, 22-08.639N,119-41.545E,222.1,24.777,34.5622,191,160
178,2004/12/10,21:13:00, 22-08.492N,119-41.372E,233.7,24.759,34.5632,187,160
179,2004/12/10,21:14:00, 22-08.345N,119-41.198E,228,24.746,34.5632,192,160
180,2004/12/10,21:15:00, 22-08.195N,119-41.028E,227.5,24.735,34.5616,188,160
181,2004/12/10,21:16:00, 22-08.044N,119-40.861E,230.8,24.738,34.5603,191,160
182,2004/12/10,21:17:00, 22-07.892N,119-40.696E,225.7,24.76,34.5585,196,160
183,2004/12/10,21:18:00, 22-07.743N,119-40.529E,224,24.787,34.5555,195,160
184,2004/12/10,21:19:00, 22-07.596N,119-40.362E,217.1,24.815,34.5563,198,160
185,2004/12/10,21:20:00, 22-07.443N,119-40.201E,223.3,24.836,34.5577,193,160
186,2004/12/10,21:21:00, 22-07.288N,119-40.039E,225,24.855,34.5579,198,160
187,2004/12/10,21:22:00, 22-07.140N,119-39.870E,223.1,24.868,34.5589,196,160
188,2004/12/10,21:23:00, 22-06.994N,119-39.700E,230.7,24.887,34.559,194,160
189,2004/12/10,21:24:00, 22-06.851N,119-39.529E,221.9,24.905,34.5594,195,160
190,2004/12/10,21:25:00, 22-06.705N,119-39.361E,232.6,24.923,34.56,195,160
191,2004/12/10,21:26:00, 22-06.557N,119-39.194E,227.5,24.943,34.5617,190,160
192,2004/12/10,21:27:00, 22-06.411N,119-39.026E,224.1,24.961,34.5614,197,160
193,2004/12/10,21:28:00, 22-06.269N,119-38.857E,227.7,24.977,34.5634,191,160
194,2004/12/10,21:29:00, 22-06.123N,119-38.689E,227,24.991,34.565,192,160
195,2004/12/10,21:30:00, 22-05.978N,119-38.518E,226.2,25.003,34.5667,190,160
196,2004/12/10,21:31:00, 22-05.834N,119-38.351E,222.5,25.016,34.5666,190,160
197,2004/12/10,21:32:00, 22-05.682N,119-38.188E,229.6,25.033,34.5677,191,160
198,2004/12/10,21:33:00, 22-05.538N,119-38.018E,234.8,25.051,34.5687,192,160
199,2004/12/10,21:34:00, 22-05.394N,119-37.850E,223.2,25.079,34.571,189,160
200,2004/12/10,21:35:00, 22-05.249N,119-37.682E,230.9,25.106,34.572,189,160
201,2004/12/10,21:36:00, 22-05.099N,119-37.518E,222.6,25.127,34.5726,185,160
202,2004/12/10,21:37:00, 22-04.953N,119-37.351E,230.6,25.143,34.575,184,160
203,2004/12/10,21:38:00, 22-04.809N,119-37.181E,229.6,25.163,34.5755,186,160
204,2004/12/10,21:39:00, 22-04.669N,119-37.012E,226.1,25.179,34.5757,185,160
205,2004/12/10,21:40:00, 22-04.523N,119-36.844E,225.1,25.192,34.5763,184,160
206,2004/12/10,21:41:00, 22-04.382N,119-36.671E,226.1,25.2,34.5763,186,160
207,2004/12/10,21:42:00, 22-04.241N,119-36.500E,229.3,25.206,34.5765,182,160
208,2004/12/10,21:43:00, 22-04.099N,119-36.326E,228.8,25.208,34.577,183,160
209,2004/12/10,21:44:00, 22-03.951N,119-36.156E,227.5,25.212,34.5769,182,160
210,2004/12/10,21:45:00, 22-03.805N,119-35.986E,228.7,25.214,34.5775,184,160
211,2004/12/10,21:46:00, 22-03.660N,119-35.816E,226.9,25.207,34.5782,181,160
212,2004/12/10,21:47:00, 22-03.517N,119-35.644E,222.2,25.197,34.579,178,160
213,2004/12/10,21:48:00, 22-03.370N,119-35.477E,228.3,25.189,34.5791,182,160
214,2004/12/10,21:49:00, 22-03.226N,119-35.310E,227.7,25.183,34.5796,185,160
215,2004/12/10,21:50:00, 22-03.084N,119-35.139E,228.3,25.182,34.5799,182,160
216,2004/12/10,21:51:00, 22-02.945N,119-34.967E,225.6,25.183,34.5796,182,160
217,2004/12/10,21:52:00, 22-02.799N,119-34.798E,225.4,25.182,34.5798,180,160
218,2004/12/10,21:53:00, 22-02.659N,119-34.626E,233.2,25.178,34.5799,181,160
219,2004/12/10,21:54:00, 22-02.521N,119-34.452E,229.1,25.175,34.58,176,160
220,2004/12/10,21:55:00, 22-02.385N,119-34.278E,236.1,25.167,34.5796,177,160
221,2004/12/10,21:56:00, 22-02.243N,119-34.111E,224.2,25.163,34.5802,179,160
222,2004/12/10,21:57:00, 22-02.101N,119-33.944E,227.6,25.153,34.5805,180,160
223,2004/12/10,21:58:00, 22-01.955N,119-33.782E,223,25.142,34.5805,180,160
224,2004/12/10,21:59:00, 22-01.809N,119-33.618E,228.4,25.136,34.5809,175,160
225,2004/12/10,22:00:00, 22-01.661N,119-33.455E,225.1,25.13,34.581,178,160
226,2004/12/10,22:01:00, 22-01.518N,119-33.290E,217,25.123,34.5825,180,160
227,2004/12/10,22:02:00, 22-01.375N,119-33.124E,220.6,25.115,34.5827,178,160
228,2004/12/10,22:03:00, 22-01.232N,119-32.958E,229.6,25.107,34.5841,179,160
229,2004/12/10,22:04:00, 22-01.086N,119-32.792E,222.6,25.095,34.5843,178,160
230,2004/12/10,22:05:00, 22-00.933N,119-32.629E,227.6,25.086,34.5847,182,160
231,2004/12/10,22:06:00, 22-00.789N,119-32.459E,239.3,25.076,34.5883,179,160
232,2004/12/10,22:07:00, 22-00.643N,119-32.292E,223.8,25.065,34.5899,180,160
233,2004/12/10,22:08:00, 22-00.498N,119-32.126E,233.9,25.057,34.591,181,160
234,2004/12/10,22:09:00, 22-00.352N,119-31.959E,231.5,25.048,34.5929,181,160
235,2004/12/10,22:10:00, 22-00.209N,119-31.788E,231.6,25.038,34.5953,182,160
236,2004/12/10,22:11:00, 22-00.064N,119-31.618E,222.5,25.023,34.5958,183,160
237,2004/12/10,22:12:00, 21-59.917N,119-31.455E,226.4,24.979,34.598,183,160
238,2004/12/10,22:13:00, 21-59.768N,119-31.295E,219.3,24.952,34.5965,182,160
239,2004/12/10,22:14:00, 21-59.617N,119-31.135E,225.9,24.94,34.5922,188,160
240,2004/12/10,22:15:00, 21-59.473N,119-30.969E,228.9,24.93,34.589,188,160
241,2004/12/10,22:16:00, 21-59.323N,119-30.809E,222.1,24.921,34.5864,185,160
242,2004/12/10,22:17:00, 21-59.175N,119-30.647E,227.2,24.914,34.5863,188,160
243,2004/12/10,22:18:00, 21-59.026N,119-30.489E,223.5,24.911,34.5874,186,160
244,2004/12/10,22:19:00, 21-58.876N,119-30.332E,223.4,24.917,34.5857,184,160
245,2004/12/10,22:20:00, 21-58.729N,119-30.172E,223.7,24.925,34.5854,185,160
246,2004/12/10,22:21:00, 21-58.585N,119-30.008E,219.7,24.933,34.5851,187,160
247,2004/12/10,22:22:00, 21-58.437N,119-29.848E,224.1,24.944,34.5852,187,160
248,2004/12/10,22:23:00, 21-58.290N,119-29.685E,230.7,24.954,34.5855,186,160
249,2004/12/10,22:24:00, 21-58.145N,119-29.522E,233.7,24.967,34.5857,185,160
250,2004/12/10,22:25:00, 21-57.999N,119-29.358E,230,24.973,34.5857,186,160
251,2004/12/10,22:26:00, 21-57.851N,119-29.199E,233.6,24.981,34.5841,188,160
252,2004/12/10,22:27:00, 21-57.704N,119-29.038E,226.8,24.99,34.5861,191,160
253,2004/12/10,22:28:00, 21-57.558N,119-28.875E,226.9,25,34.5839,190,160
254,2004/12/10,22:29:00, 21-57.415N,119-28.711E,225.6,25.01,34.5831,194,160
255,2004/12/10,22:30:00, 21-57.266N,119-28.551E,225.6,25.02,34.5824,195,160
256,2004/12/10,22:31:00, 21-57.120N,119-28.389E,217.8,25.027,34.5825,191,160
257,2004/12/10,22:32:00, 21-56.971N,119-28.230E,214.5,25.036,34.5824,194,160
258,2004/12/10,22:33:00, 21-56.826N,119-28.068E,223.6,25.044,34.5828,193,160
259,2004/12/10,22:34:00, 21-56.680N,119-27.907E,224.9,25.057,34.5846,188,160
260,2004/12/10,22:35:00, 21-56.536N,119-27.740E,229.6,25.067,34.5857,189,160
261,2004/12/10,22:36:00, 21-56.389N,119-27.580E,225,25.076,34.5884,190,160
262,2004/12/10,22:37:00, 21-56.243N,119-27.418E,227,25.086,34.5909,186,160
263,2004/12/10,22:38:00, 21-56.099N,119-27.252E,222.7,25.093,34.5919,185,160
264,2004/12/10,22:39:00, 21-55.949N,119-27.091E,218.8,25.098,34.593,187,160
265,2004/12/10,22:40:00, 21-55.804N,119-26.926E,226.8,25.11,34.593,184,160
266,2004/12/10,22:41:00, 21-55.658N,119-26.764E,231.6,25.12,34.5931,182,160
267,2004/12/10,22:42:00, 21-55.512N,119-26.601E,227.3,25.128,34.5936,183,160
268,2004/12/10,22:43:00, 21-55.370N,119-26.434E,230.1,25.135,34.5926,184,160
269,2004/12/10,22:44:00, 21-55.228N,119-26.267E,229.3,25.144,34.5946,182,160
270,2004/12/10,22:45:00, 21-55.088N,119-26.099E,225,25.152,34.5945,186,160
271,2004/12/10,22:46:00, 21-54.942N,119-25.937E,233.7,25.152,34.5955,185,160
272,2004/12/10,22:47:00, 21-54.801N,119-25.769E,230.7,25.148,34.5952,187,160
273,2004/12/10,22:48:00, 21-54.656N,119-25.604E,230.3,25.15,34.5914,184,160
274,2004/12/10,22:49:00, 21-54.513N,119-25.436E,228.2,25.147,34.5886,186,160
275,2004/12/10,22:50:00, 21-54.373N,119-25.265E,234.2,25.153,34.5865,188,160
276,2004/12/10,22:51:00, 21-54.230N,119-25.099E,217.2,25.154,34.5856,184,160
277,2004/12/10,22:52:00, 21-54.083N,119-24.934E,229.6,25.156,34.5843,185,160
278,2004/12/10,22:53:00, 21-53.941N,119-24.765E,221.2,25.165,34.5848,186,160
279,2004/12/10,22:54:00, 21-53.796N,119-24.603E,234.9,25.173,34.585,186,160
280,2004/12/10,22:55:00, 21-53.654N,119-24.436E,218.8,25.174,34.5881,182,160
281,2004/12/10,22:56:00, 21-53.512N,119-24.269E,228.4,25.175,34.5879,181,160
282,2004/12/10,22:57:00, 21-53.371N,119-24.099E,226.2,25.177,34.5902,181,160
283,2004/12/10,22:58:00, 21-53.225N,119-23.936E,230.5,25.176,34.5899,187,160
284,2004/12/10,22:59:00, 21-53.081N,119-23.772E,222.9,25.175,34.5912,184,160
285,2004/12/10,23:00:00, 21-52.936N,119-23.607E,226.7,25.174,34.5916,175,160
286,2004/12/10,23:01:00, 21-52.790N,119-23.443E,222.1,25.178,34.5918,175,160
287,2004/12/10,23:02:00, 21-52.647N,119-23.274E,229.3,25.178,34.5926,178,160
288,2004/12/10,23:03:00, 21-52.504N,119-23.106E,228.5,25.18,34.5925,189,160
289,2004/12/10,23:04:00, 21-52.360N,119-22.939E,229,25.183,34.5929,183,160
290,2004/12/10,23:05:00, 21-52.213N,119-22.773E,225.7,25.182,34.5911,180,160
291,2004/12/10,23:06:00, 21-52.068N,119-22.607E,228.4,25.188,34.5912,182,160
292,2004/12/10,23:07:00, 21-51.926N,119-22.441E,227.4,25.191,34.5907,183,160
293,2004/12/10,23:08:00, 21-51.784N,119-22.274E,227.1,25.191,34.5903,184,160
294,2004/12/10,23:09:00, 21-51.637N,119-22.113E,222,25.194,34.5904,181,160
295,2004/12/10,23:10:00, 21-51.484N,119-21.959E,224.9,25.192,34.5903,187,160
296,2004/12/10,23:11:00, 21-51.337N,119-21.799E,221,25.189,34.5894,180,160
297,2004/12/10,23:12:00, 21-51.182N,119-21.643E,220.6,25.189,34.5891,184,160
298,2004/12/10,23:13:00, 21-51.036N,119-21.484E,221.3,25.192,34.5892,183,160
299,2004/12/10,23:14:00, 21-50.884N,119-21.329E,228.2,25.191,34.5893,185,160
300,2004/12/10,23:15:00, 21-50.734N,119-21.170E,224.2,25.194,34.5894,182,160
301,2004/12/10,23:16:00, 21-50.581N,119-21.016E,226.3,25.193,34.5898,185,160
302,2004/12/10,23:17:00, 21-50.430N,119-20.863E,222.4,25.19,34.5901,182,160
303,2004/12/10,23:18:00, 21-50.281N,119-20.703E,219.6,25.187,34.5902,183,160
304,2004/12/10,23:19:00, 21-50.129N,119-20.543E,225.7,25.184,34.5899,185,160
305,2004/12/10,23:20:00, 21-49.976N,119-20.387E,220.8,25.182,34.5905,180,160
306,2004/12/10,23:21:00, 21-49.824N,119-20.230E,227.2,25.181,34.5931,182,160
307,2004/12/10,23:22:00, 21-49.671N,119-20.074E,223.9,25.177,34.5946,182,160
308,2004/12/10,23:23:00, 21-49.520N,119-19.914E,226.7,25.174,34.5972,182,160
309,2004/12/10,23:24:00, 21-49.367N,119-19.762E,223.7,25.174,34.5988,184,160
310,2004/12/10,23:25:00, 21-49.217N,119-19.599E,221.3,25.175,34.6011,182,160
311,2004/12/10,23:26:00, 21-49.067N,119-19.437E,218.3,25.174,34.6042,179,160
312,2004/12/10,23:27:00, 21-48.913N,119-19.275E,223.1,25.172,34.6078,179,160
313,2004/12/10,23:28:00, 21-48.762N,119-19.111E,207.9,25.174,34.6106,180,160
314,2004/12/10,23:29:00, 21-48.607N,119-18.954E,231.5,25.174,34.6155,182,160
315,2004/12/10,23:30:00, 21-48.453N,119-18.799E,222.3,25.178,34.6185,180,160
316,2004/12/10,23:31:00, 21-48.302N,119-18.635E,228.7,25.182,34.6229,180,160
317,2004/12/10,23:32:00, 21-48.149N,119-18.474E,222.7,25.183,34.6281,180,160
318,2004/12/10,23:33:00, 21-47.997N,119-18.314E,222.7,25.184,34.6327,178,160
319,2004/12/10,23:34:00, 21-47.848N,119-18.150E,218.9,25.187,34.6355,179,160
320,2004/12/10,23:35:00, 21-47.693N,119-17.990E,216.5,25.188,34.64,180,160
321,2004/12/10,23:36:00, 21-47.537N,119-17.835E,235.7,25.19,34.6428,181,160
322,2004/12/10,23:37:00, 21-47.384N,119-17.677E,221.7,25.19,34.6473,176,160
323,2004/12/10,23:38:00, 21-47.237N,119-17.515E,222.9,25.191,34.6526,177,160
324,2004/12/10,23:39:00, 21-47.087N,119-17.359E,222.1,25.201,34.6567,177,160
325,2004/12/10,23:40:00, 21-46.938N,119-17.202E,215.1,25.203,34.6608,176,160
326,2004/12/10,23:41:00, 21-46.784N,119-17.047E,220.7,25.2,34.6655,180,160
327,2004/12/10,23:42:00, 21-46.634N,119-16.891E,227.7,25.198,34.6669,175,160
328,2004/12/10,23:43:00, 21-46.487N,119-16.733E,228.5,25.195,34.6684,177,160
329,2004/12/10,23:44:00, 21-46.334N,119-16.580E,219,25.194,34.6694,177,160
330,2004/12/10,23:45:00, 21-46.184N,119-16.422E,222.6,25.192,34.6677,178,160
331,2004/12/10,23:46:00, 21-46.035N,119-16.262E,229,25.191,34.6692,177,160
332,2004/12/10,23:47:00, 21-45.882N,119-16.106E,232.1,25.186,34.6688,178,160
333,2004/12/10,23:48:00, 21-45.734N,119-15.949E,229.2,25.179,34.6691,179,160
334,2004/12/10,23:49:00, 21-45.588N,119-15.789E,225,25.172,34.6677,178,160
335,2004/12/10,23:50:00, 21-45.438N,119-15.631E,230.7,25.169,34.6682,177,160
336,2004/12/10,23:51:00, 21-45.287N,119-15.474E,231.7,25.164,34.6672,176,160
337,2004/12/10,23:52:00, 21-45.138N,119-15.317E,224.6,25.162,34.6667,174,160
338,2004/12/10,23:53:00, 21-44.982N,119-15.162E,222.7,25.16,34.6662,176,160
339,2004/12/10,23:54:00, 21-44.829N,119-15.004E,226.2,25.157,34.6667,177,160
340,2004/12/10,23:55:00, 21-44.677N,119-14.847E,224.1,25.158,34.6664,175,160
341,2004/12/10,23:56:00, 21-44.523N,119-14.694E,232.4,25.155,34.6665,176,160
342,2004/12/10,23:57:00, 21-44.367N,119-14.545E,221.3,25.148,34.6653,175,160
343,2004/12/10,23:58:00, 21-44.220N,119-14.390E,230.3,25.145,34.6657,175,160
344,2004/12/10,23:59:00, 21-44.070N,119-14.240E,222.5,25.143,34.6655,177,160
345,2004/12/11,0:00:00, 21-43.921N,119-14.090E,218.1,25.136,34.6656,173,160
346,2004/12/11,0:01:00, 21-43.774N,119-13.937E,230.2,25.131,34.6642,174,160
347,2004/12/11,0:02:00, 21-43.619N,119-13.789E,217.5,25.126,34.6628,177,160
348,2004/12/11,0:03:00, 21-43.468N,119-13.634E,224.2,25.124,34.6625,178,160
349,2004/12/11,0:04:00, 21-43.316N,119-13.478E,224,25.12,34.6628,175,160
350,2004/12/11,0:05:00, 21-43.162N,119-13.323E,229.1,25.116,34.6623,175,160
351,2004/12/11,0:06:00, 21-43.006N,119-13.170E,230.3,25.109,34.661,176,160
352,2004/12/11,0:07:00, 21-42.853N,119-13.015E,226,25.105,34.6609,176,160
353,2004/12/11,0:08:00, 21-42.703N,119-12.856E,229.5,25.104,34.66,176,160
354,2004/12/11,0:09:00, 21-42.550N,119-12.702E,219.4,25.102,34.6599,175,160
355,2004/12/11,0:10:00, 21-42.396N,119-12.546E,226.9,25.097,34.6599,174,160
356,2004/12/11,0:11:00, 21-42.247N,119-12.386E,224,25.091,34.6595,175,160
357,2004/12/11,0:12:00, 21-42.096N,119-12.228E,224.5,25.066,34.6592,174,160
358,2004/12/11,0:13:00, 21-41.945N,119-12.073E,220.2,25.057,34.6565,174,160
359,2004/12/11,0:14:00, 21-41.797N,119-11.914E,229.7,25.052,34.6478,178,160
360,2004/12/11,0:15:00, 21-41.648N,119-11.758E,219.2,25.046,34.6454,197,160
361,2004/12/11,0:16:00, 21-41.493N,119-11.609E,207.4,25.046,34.6414,178,160
362,2004/12/11,0:17:00, 21-41.345N,119-11.454E,216.8,25.049,34.6376,176,160
363,2004/12/11,0:18:00, 21-41.197N,119-11.298E,227.5,25.053,34.6361,181,160
364,2004/12/11,0:19:00, 21-41.044N,119-11.145E,220.9,25.056,34.6333,184,160
365,2004/12/11,0:20:00, 21-40.895N,119-10.989E,223.6,25.06,34.6327,180,160
366,2004/12/11,0:21:00, 21-40.746N,119-10.833E,225.5,25.063,34.6314,184,160
367,2004/12/11,0:22:00, 21-40.596N,119-10.675E,221.5,25.065,34.6309,188,160
368,2004/12/11,0:23:00, 21-40.447N,119-10.518E,224.6,25.067,34.6334,180,160
369,2004/12/11,0:24:00, 21-40.295N,119-10.360E,218,25.067,34.63,175,160
370,2004/12/11,0:25:00, 21-40.145N,119-10.202E,217.5,25.069,34.6307,178,160
371,2004/12/11,0:26:00, 21-39.998N,119-10.040E,224.5,25.068,34.6305,172,160
372,2004/12/11,0:27:00, 21-39.849N,119-09.882E,231.7,25.068,34.6299,179,160
373,2004/12/11,0:28:00, 21-39.701N,119-09.726E,230.6,25.067,34.6299,180,160
374,2004/12/11,0:29:00, 21-39.553N,119-09.567E,222.8,25.069,34.6271,176,160
375,2004/12/11,0:30:00, 21-39.408N,119-09.408E,221.3,25.068,34.6213,174,160
376,2004/12/11,0:31:00, 21-39.264N,119-09.250E,220.6,25.048,34.6189,177,160
377,2004/12/11,0:32:00, 21-39.116N,119-09.097E,238.3,25.047,34.6071,188,160
378,2004/12/11,0:33:00, 21-38.972N,119-08.939E,229.5,25.044,34.5927,185,160
379,2004/12/11,0:34:00, 21-38.828N,119-08.782E,223.4,25.045,34.5881,184,160
380,2004/12/11,0:35:00, 21-38.681N,119-08.624E,219.3,25.049,34.5813,180,160
381,2004/12/11,0:36:00, 21-38.535N,119-08.465E,228.1,25.054,34.578,223,160
382,2004/12/11,0:37:00, 21-38.385N,119-08.310E,216,25.056,34.5749,174,160
383,2004/12/11,0:38:00, 21-38.243N,119-08.148E,218.7,25.06,34.5749,180,160
384,2004/12/11,0:39:00, 21-38.096N,119-07.988E,224.8,25.06,34.5728,175,160
385,2004/12/11,0:40:00, 21-37.944N,119-07.833E,218.8,25.06,34.5722,185,160
386,2004/12/11,0:41:00, 21-37.797N,119-07.673E,223.5,25.061,34.5712,195,160
387,2004/12/11,0:42:00, 21-37.653N,119-07.513E,230.3,25.062,34.5709,170,160
388,2004/12/11,0:43:00, 21-37.502N,119-07.358E,220.2,25.061,34.5711,186,160
389,2004/12/11,0:44:00, 21-37.354N,119-07.198E,222.8,25.06,34.5694,178,160
390,2004/12/11,0:45:00, 21-37.205N,119-07.041E,222.7,25.063,34.5685,176,160
391,2004/12/11,0:46:00, 21-37.059N,119-06.878E,221.4,25.065,34.5666,178,160
392,2004/12/11,0:47:00, 21-36.910N,119-06.720E,228.8,25.067,34.5648,178,160
393,2004/12/11,0:48:00, 21-36.760N,119-06.561E,221.9,25.069,34.5638,186,160
394,2004/12/11,0:49:00, 21-36.612N,119-06.401E,222.1,25.07,34.5637,179,160
395,2004/12/11,0:50:00, 21-36.462N,119-06.242E,231.7,25.073,34.5626,180,160
396,2004/12/11,0:51:00, 21-36.315N,119-06.079E,220.9,25.075,34.5618,179,160
397,2004/12/11,0:52:00, 21-36.167N,119-05.919E,220.2,25.076,34.5599,175,160
398,2004/12/11,0:53:00, 21-36.020N,119-05.760E,227.3,25.077,34.5599,180,160
399,2004/12/11,0:54:00, 21-35.874N,119-05.599E,220.4,25.079,34.5587,177,160
400,2004/12/11,0:55:00, 21-35.726N,119-05.439E,224.5,25.085,34.5577,180,160
401,2004/12/11,0:56:00, 21-35.577N,119-05.278E,228.1,25.086,34.5577,180,160
402,2004/12/11,0:57:00, 21-35.431N,119-05.115E,230,25.087,34.5572,180,160
403,2004/12/11,0:58:00, 21-35.286N,119-04.953E,224.9,25.089,34.5565,177,160
404,2004/12/11,0:59:00, 21-35.139N,119-04.792E,224,25.09,34.5567,179,160
405,2004/12/11,1:00:00, 21-34.988N,119-04.634E,224.8,25.092,34.5559,183,160
406,2004/12/11,1:01:00, 21-34.844N,119-04.471E,224.7,25.095,34.5558,180,160
407,2004/12/11,1:02:00, 21-34.695N,119-04.310E,228.3,25.096,34.5552,168,160
408,2004/12/11,1:03:00, 21-34.549N,119-04.149E,223.9,25.097,34.5558,179,160